Volver al catálogo

NOAA 16 DEB

ActivoPO
NORAD 41078·DEBRIS·🇺🇸 United States

Lanzado Sep 21, 2000 desde Vandenberg Space Force Base

Loading…

Próximos Pases (próximas 24 horas)

TLE

ActualizadoSource: Space-Track

Época: Sep 14, 2026, 13:33 UTC

1 41078U 00055AM  26257.56468985  .00000257  00000-0  30669-3 0  9994
2 41078  98.9391   5.8952 0289329 146.0296 215.9749 13.58517486534907

Sigue NOAA 16 DEB en tiempo real con AllMySat

Download on the App Store